This is the latest recevied weather packets stored in our database for station/object KF0ZH. If no packets are shown the sender has not sent any weather packets the latest 1 day(s).
| Time | Temp. | Humidity | Pressure | Rain* | Wind** | Luminosity | Snow |
|---|---|---|---|---|---|---|---|
| 1778009517 | 9.44° C | 53% | 1009.7 hPa | 0 mm | 2.68 m/s, 22° | - | - |
| 1778009219 | 9.44° C | 53% | 1009.7 hPa | 0 mm | 5.36 m/s, 293° | - | - |
| 1778008920 | 9.44° C | 53% | 1009.7 hPa | 0 mm | 1.34 m/s, 284° | - | - |
| 1778008616 | 9.44° C | 53% | 1009.7 hPa | 0 mm | 3.58 m/s, 312° | - | - |
| 1778008324 | 10° C | 53% | 1009.7 hPa | 0 mm | 2.24 m/s, 326° | - | - |
| 1778008017 | 10° C | 53% | 1009.7 hPa | 0 mm | 1.34 m/s, 286° | - | - |
| 1778007717 | 9.44° C | 54% | 1009.8 hPa | 0 mm | 0 m/s | - | - |
| 1778007416 | 9.44° C | 53% | 1009.8 hPa | 0 mm | 4.02 m/s, 223° | - | - |
| 1778007186 | 10° C | 52% | 1009.8 hPa | 0 mm | 1.79 m/s, 285° | - | - |
| 1778007119 | 10° C | 52% | 1009.8 hPa | 0 mm | 1.79 m/s, 285° | - | - |
| 1778006818 | 10° C | 54% | 1009.8 hPa | 0 mm | 4.47 m/s, 267° | - | - |
| 1778006516 | 10° C | 53% | 1009.8 hPa | 0 mm | 2.24 m/s, 250° | - | - |
| 1778006217 | 10° C | 53% | 1009.8 hPa | 0 mm | 0.89 m/s, 258° | - | - |
| 1778005917 | 9.44° C | 54% | 1009.7 hPa | 0 mm | 2.24 m/s, 272° | - | - |
| 1778005618 | 10° C | 52% | 1009.8 hPa | 0 mm | 5.36 m/s, 305° | - | - |
| 1778005321 | 10° C | 52% | 1009.8 hPa | 0 mm | 1.34 m/s, 358° | - | - |
| 1778005024 | 9.44° C | 54% | 1009.8 hPa | 0 mm | 0 m/s | - | - |
| 1778004717 | 9.44° C | 52% | 1009.8 hPa | 0 mm | 3.13 m/s, 285° | - | - |
| 1778004416 | 10° C | 52% | 1009.8 hPa | 0 mm | 2.24 m/s, 277° | - | - |
| 1778004116 | 9.44° C | 53% | 1009.8 hPa | 0 mm | 0 m/s | - | - |
| 1778003517 | 9.44° C | 53% | 1009.8 hPa | 0 mm | 4.02 m/s, 337° | - | - |
| 1778002917 | 9.44° C | 53% | 1009.8 hPa | 0 mm | 2.24 m/s, 4° | - | - |
| 1778002617 | 9.44° C | 52% | 1009.8 hPa | 0 mm | 2.68 m/s, 329° | - | - |
| 1778002017 | 8.89° C | 55% | 1009.9 hPa | 0 mm | 0.89 m/s, 258° | - | - |
| 1778001718 | 8.89° C | 53% | 1009.9 hPa | 0 mm | 0 m/s | - | - |
* Rain latest hour (hover to see other rain measurements)
** Current wind speed in m/s (hover to see current wind gust speed)